FW2343 Weather Reports


Display with metric or nautical units.
time (UTC)temp
F
wind
direction
speed
MPH
gust
MPH
rain 1hr
in
rain 24hr
in
rain mn
in
humidity
%
barometer
mb
20260506051205 50 0 0.0 0.0 0.00 0.38 0.00 93 1012.2
20260506050718 50 0 0.0 0.0 0.00 0.38 0.00 93 1012.1
20260506050205 50 0 0.0 0.0 0.00 0.38 0.00 93 1012.0
20260506044713 50 0 0.0 2.0 0.00 0.38 0.00 92 1012.0
20260506044217 50 0 0.0 4.0 0.00 0.38 0.00 92 1011.9
20260506043713 50 271 0.0 4.0 0.00 0.38 0.00 92 1011.7
20260506043207 50 268 2.0 4.0 0.00 0.38 0.00 91 1011.9
20260506042217 50 240 1.0 4.0 0.00 0.38 0.00 91 1011.6
20260506041705 50 251 1.0 4.0 0.00 0.38 0.00 91 1011.6
20260506041216 50 243 0.0 2.0 0.00 0.38 0.00 91 1011.6
20260506040705 50 0 0.0 2.0 0.00 0.38 0.00 92 1011.6
20260506040207 50 286 0.0 1.0 0.00 0.38 0.00 92 1011.5
20260506035718 51 275 0.0 1.0 0.00 0.38 0.00 92 1011.5
20260506035208 51 265 0.0 0.0 0.00 0.38 0.00 92 1011.6
20260506034705 51 0 0.0 0.0 0.00 0.38 0.00 92 1011.6
20260506034215 51 0 0.0 1.0 0.00 0.38 0.00 92 1011.6
20260506033210 51 268 0.0 1.0 0.00 0.38 0.00 92 1011.7
20260506032708 51 0 0.0 6.0 0.00 0.38 0.00 92 1011.7
20260506032215 51 0 0.0 7.0 0.00 0.38 0.00 92 1011.7
20260506031715 51 74 2.0 7.0 0.00 0.38 0.00 92 1011.7
20260506031217 51 97 1.0 7.0 0.00 0.38 0.00 92 1011.7
20260506030707 51 324 0.0 0.0 0.00 0.38 0.00 92 1011.7
20260506030215 51 0 0.0 0.0 0.00 0.38 0.00 92 1011.6
20260506025723 51 0 0.0 0.0 0.00 0.38 0.00 92 1011.6
20260506025205 51 0 0.0 4.0 0.00 0.39 0.00 92 1011.6
20260506024716 51 0 0.0 4.0 0.00 0.39 0.00 92 1011.7
20260506024208 51 230 1.0 2.0 0.00 0.39 0.00 92 1011.7
20260506023715 51 239 0.0 2.0 0.00 0.39 0.00 91 1011.7
20260506023204 51 0 0.0 2.0 0.00 0.39 0.00 92 1011.7
20260506021715 51 0 0.0 0.0 0.00 0.39 0.00 92 1011.7
20260506021218 51 0 0.0 3.0 0.00 0.39 0.00 92 1011.6
20260506020715 51 0 0.0 3.0 0.00 0.39 0.00 92 1011.6
20260506020216 51 230 0.0 3.0 0.00 0.39 0.00 92 1011.6
20260506015718 51 0 0.0 0.0 0.00 0.39 0.00 92 1011.6
20260506014716 51 0 0.0 1.0 0.00 0.39 0.00 92 1011.7
20260506014205 51 257 0.0 2.0 0.00 0.39 0.00 91 1011.6
20260506013710 51 0 0.0 2.0 0.00 0.39 0.00 91 1011.7
20260506012708 51 0 0.0 0.0 0.00 0.39 0.00 90 1011.5
20260506012214 51 0 0.0 0.0 0.00 0.39 0.00 90 1011.5
20260506011719 52 0 0.0 4.0 0.00 0.39 0.00 89 1011.6
20260506011212 52 0 0.0 4.0 0.00 0.39 0.00 89 1011.5
20260506010712 52 194 1.0 5.0 0.00 0.39 0.00 89 1011.6
20260506010205 52 209 2.0 5.0 0.00 0.39 0.00 89 1011.6
20260506004218 52 219 3.0 5.0 0.00 0.39 0.00 89 1011.7
20260506003212 52 254 3.0 12.0 0.00 0.39 0.00 89 1011.7
20260506002706 52 212 3.0 13.0 0.00 0.39 0.00 89 1012.0
20260506002209 52 267 4.0 15.0 0.00 0.39 0.00 89 1012.0
20260506001732 52 250 6.0 15.0 0.00 0.39 0.00 88 1012.1
20260506001210 52 251 7.0 15.0 0.00 0.39 0.00 88 1012.1
20260506000705 52 0 0.0 0.0 0.00 0.39 0.00 89 1012.0
20260506000208 52 0 0.0 0.0 0.00 0.39 0.00 90 1012.0
20260505235715 51 0 0.0 0.0 0.00 0.39 0.00 91 1012.0
20260505234728 50 0 0.0 0.0 0.00 0.39 0.00 94 1012.2
20260505234205 49 0 0.0 0.0 0.00 0.39 0.00 94 1012.3
20260505233709 49 0 0.0 0.0 0.00 0.39 0.00 94 1012.2
20260505233209 49 0 0.0 0.0 0.00 0.39 0.00 94 1012.3
20260505232719 49 0 0.0 0.0 0.00 0.39 0.00 94 1012.3
20260505232215 49 0 0.0 0.0 0.00 0.39 0.00 94 1012.3
20260505231707 49 0 0.0 0.0 0.00 0.39 0.00 94 1012.4
20260505231210 49 0 0.0 0.0 0.00 0.39 0.00 94 1012.3
20260505230206 50 0 0.0 0.0 0.00 0.39 0.00 93 1012.2
20260505225715 50 0 0.0 0.0 0.00 0.39 0.00 93 1012.3
20260505223709 51 0 0.0 0.0 0.00 0.39 0.00 93 1012.5
20260505223215 51 0 0.0 0.0 0.00 0.39 0.00 93 1012.4
20260505222719 51 0 0.0 0.0 0.00 0.39 0.00 93 1012.5
20260505222213 51 0 0.0 0.0 0.00 0.39 0.00 92 1012.5
20260505221714 51 0 0.0 0.0 0.00 0.39 0.00 93 1012.6
20260505221206 51 0 0.0 0.0 0.00 0.39 0.00 92 1012.7
20260505220217 52 0 0.0 0.0 0.00 0.39 0.39 92 1012.8
20260505215708 52 0 0.0 0.0 0.00 0.39 0.39 93 1012.8
20260505215215 52 0 0.0 0.0 0.00 0.39 0.39 93 1012.8
20260505214713 52 0 0.0 0.0 0.00 0.39 0.39 93 1012.9
20260505214212 52 0 0.0 0.0 0.00 0.39 0.39 93 1012.9
20260505213706 52 0 0.0 0.0 0.00 0.39 0.39 93 1012.9
20260505213212 52 0 0.0 0.0 0.00 0.39 0.39 93 1013.0
20260505212706 52 0 0.0 0.0 0.00 0.39 0.39 93 1013.1
20260505212231 52 0 0.0 0.0 0.00 0.39 0.39 93 1013.1
20260505211724 53 0 0.0 0.0 0.00 0.40 0.39 93 1013.1
20260505211205 52 0 0.0 0.0 0.00 0.40 0.39 93 1013.2
20260505210711 53 0 0.0 0.0 0.00 0.40 0.39 93 1013.2
20260505205710 53 0 0.0 0.0 0.00 0.40 0.39 93 1013.1
20260505204707 53 0 0.0 0.0 0.00 0.40 0.39 92 1013.1
20260505204210 53 0 0.0 0.0 0.00 0.40 0.39 92 1013.2
20260505203718 53 0 0.0 0.0 0.00 0.40 0.39 92 1013.1
20260505203217 53 0 0.0 0.0 0.00 0.40 0.39 92 1013.1
20260505202706 53 0 0.0 0.0 0.00 0.40 0.39 91 1013.1
20260505202210 53 0 0.0 0.0 0.00 0.40 0.39 91 1013.0
20260505201209 53 0 0.0 0.0 0.00 0.40 0.39 91 1013.0
20260505200713 53 0 0.0 0.0 0.00 0.40 0.39 91 1013.0
20260505200213 53 0 0.0 0.0 0.00 0.40 0.39 90 1012.9
20260505195709 53 0 0.0 0.0 0.00 0.40 0.39 90 1012.8
20260505195206 53 0 0.0 0.0 0.00 0.40 0.39 89 1012.7
20260505194714 53 0 0.0 0.0 0.00 0.40 0.39 89 1012.6
20260505194206 53 0 0.0 0.0 0.00 0.40 0.39 89 1012.6
20260505193708 53 0 0.0 0.0 0.00 0.40 0.39 89 1012.5
20260505192207 53 0 0.0 0.0 0.00 0.40 0.39 89 1012.4
20260505191718 53 0 0.0 0.0 0.00 0.40 0.39 89 1012.4
20260505190710 53 0 0.0 0.0 0.00 0.40 0.39 90 1012.3
20260505190212 53 0 0.0 0.0 0.00 0.40 0.39 90 1012.4
20260505185713 53 0 0.0 0.0 0.00 0.40 0.39 90 1012.4
20260505185205 53 0 0.0 0.0 0.00 0.41 0.39 90 1012.4
20260505184710 53 0 0.0 0.0 0.00 0.42 0.39 90 1012.4
20260505184210 53 0 0.0 0.0 0.00 0.43 0.39 90 1012.4
20260505183204 53 0 0.0 0.0 0.00 0.45 0.39 89 1012.4
20260505182205 53 0 0.0 0.0 0.00 0.45 0.39 90 1012.5
20260505181707 53 0 0.0 0.0 0.00 0.45 0.39 89 1012.5
20260505180719 53 0 0.0 0.0 0.00 0.48 0.39 89 1012.7
20260505180213 53 0 0.0 0.0 0.00 0.51 0.39 89 1012.7
20260505174212 53 0 0.0 8.0 0.02 0.54 0.39 88 1012.7
20260505173718 53 0 0.0 8.0 0.03 0.54 0.39 87 1012.6
20260505173209 53 226 1.0 13.0 0.04 0.55 0.39 86 1012.6
20260505172709 53 295 0.0 13.0 0.05 0.55 0.39 86 1012.5
20260505172206 53 247 1.0 13.0 0.06 0.55 0.39 86 1012.7
20260505171713 53 239 2.0 12.0 0.08 0.56 0.39 86 1012.6
20260505170710 53 260 5.0 15.0 0.09 0.56 0.39 86 1012.4
20260505170211 53 226 6.0 16.0 0.15 0.57 0.39 88 1012.5
20260505165710 53 258 5.0 17.0 0.29 0.58 0.39 88 1012.5
20260505165214 52 234 8.0 18.0 0.38 0.61 0.39 89 1012.5
20260505164705 52 241 9.0 23.0 0.36 0.64 0.37 89 1012.5
20260505163213 52 299 9.0 23.0 0.33 0.63 0.34 88 1012.0
20260505162713 52 296 8.0 23.0 0.33 0.63 0.34 88 1012.1
20260505162206 52 250 6.0 23.0 0.31 0.61 0.31 88 1012.1
20260505161729 52 247 9.0 23.0 0.29 0.59 0.30 88 1012.2
20260505161219 53 236 8.0 26.0 0.29 0.59 0.30 87 1012.3
20260505153215 64 0 0.0 0.0 0.00 0.30 0.01 64 1010.1
20260505152719 65 0 0.0 0.0 0.00 0.30 0.01 63 1010.1
20260505152213 65 0 0.0 0.0 0.00 0.30 0.01 62 1010.1
20260505151717 65 0 0.0 0.0 0.00 0.30 0.01 63 1010.1
20260505151216 65 0 0.0 0.0 0.00 0.30 0.01 63 1010.0
20260505150716 65 0 0.0 0.0 0.00 0.30 0.01 65 1009.9
20260505150215 65 0 0.0 0.0 0.00 0.30 0.01 62 1009.9
20260505140208 65 0 0.0 5.0 0.00 0.30 0.01 62 1010.1
20260505130219 65 0 0.0 0.0 0.00 0.30 0.01 60 1010.7
20260505124219 65 0 0.0 3.0 0.00 0.30 0.01 60 1010.8
20260505123707 64 352 0.0 4.0 0.00 0.30 0.01 62 1010.8
20260505123206 64 49 0.0 4.0 0.00 0.30 0.01 62 1010.9
20260505122207 63 0 0.0 6.0 0.00 0.30 0.01 65 1011.0
20260505121713 63 0 0.0 6.0 0.00 0.30 0.01 66 1011.1
20260505121205 63 293 1.0 6.0 0.00 0.30 0.01 67 1011.2
20260505120705 63 354 0.0 11.0 0.00 0.30 0.01 66 1011.2
20260505115709 63 271 3.0 7.0 0.00 0.30 0.01 66 1011.4
20260505115213 63 271 1.0 7.0 0.00 0.30 0.01 66 1011.4
20260505114711 64 0 0.0 0.0 0.00 0.30 0.01 66 1011.4
20260505114206 64 0 0.0 4.0 0.00 0.30 0.01 64 1011.5
20260505113706 64 0 0.0 6.0 0.00 0.30 0.01 62 1011.4
20260505113212 64 281 0.0 6.0 0.00 0.30 0.01 65 1011.5
20260505112718 63 327 1.0 6.0 0.00 0.30 0.01 65 1011.6
20260505112224 63 316 0.0 1.0 0.00 0.30 0.01 66 1011.6
20260505111712 64 0 0.0 2.0 0.00 0.30 0.01 64 1011.6
20260505111205 64 247 0.0 6.0 0.00 0.30 0.01 66 1011.7
20260505110706 64 255 0.0 7.0 0.00 0.30 0.01 65 1011.7
20260505110218 63 265 0.0 7.0 0.00 0.30 0.01 66 1011.9
20260505102205 62 282 0.0 4.0 0.00 0.31 0.01 69 1012.4
20260505101713 62 270 1.0 4.0 0.00 0.31 0.01 67 1012.4
20260505101212 62 0 0.0 6.0 0.00 0.31 0.01 67 1012.5
20260505100205 62 298 1.0 4.0 0.00 0.31 0.01 69 1012.6
20260505094718 62 226 0.0 0.0 0.00 0.31 0.01 68 1012.8
20260505094212 62 0 0.0 7.0 0.00 0.31 0.01 67 1012.7
20260505093707 62 0 0.0 7.0 0.00 0.31 0.01 66 1012.7
20260505093211 62 268 1.0 5.0 0.00 0.31 0.01 67 1012.7
20260505092709 61 279 0.0 5.0 0.00 0.31 0.01 70 1012.7
20260505092214 60 261 1.0 4.0 0.00 0.31 0.01 71 1012.8
20260505091713 60 0 0.0 4.0 0.00 0.31 0.01 69 1012.7
20260505091205 60 261 0.0 4.0 0.00 0.31 0.01 70 1012.7
20260505090705 60 0 0.0 6.0 0.00 0.31 0.01 73 1012.7
20260505090207 59 293 1.0 6.0 0.00 0.31 0.01 71 1012.7
20260505085708 59 232 2.0 5.0 0.00 0.31 0.01 72 1012.7
20260505084718 59 234 2.0 9.0 0.00 0.31 0.01 70 1012.7
20260505082711 59 262 1.0 10.0 0.00 0.31 0.01 72 1012.7
20260505081718 58 222 4.0 5.0 0.00 0.31 0.01 74 1012.8
20260505081219 58 299 0.0 5.0 0.00 0.31 0.01 75 1012.7
20260505080715 58 248 1.0 6.0 0.00 0.31 0.01 76 1012.7
20260505075713 57 248 2.0 8.0 0.00 0.31 0.01 78 1012.7
20260505075219 57 233 3.0 7.0 0.00 0.31 0.01 79 1012.6
20260505074716 57 237 3.0 7.0 0.00 0.31 0.01 79 1012.7
20260505074210 57 237 2.0 9.0 0.00 0.31 0.01 79 1012.7
20260505072705 56 234 5.0 9.0 0.00 0.31 0.01 81 1012.9
20260505072217 56 225 2.0 4.0 0.00 0.31 0.01 81 1012.9
20260505071719 56 246 0.0 5.0 0.00 0.31 0.01 82 1012.9
20260505070711 55 233 1.0 5.0 0.00 0.31 0.01 84 1013.0
20260505070219 55 227 0.0 0.0 0.00 0.31 0.01 85 1012.9
20260505065219 55 0 0.0 0.0 0.00 0.31 0.01 87 1013.0
20260505064214 54 0 0.0 2.0 0.00 0.31 0.01 87 1013.1
20260505063708 54 170 0.0 2.0 0.00 0.31 0.01 87 1013.0
20260505063214 54 0 0.0 4.0 0.00 0.31 0.01 87 1013.1
20260505062712 54 239 0.0 4.0 0.00 0.31 0.01 87 1013.1
20260505062217 54 261 2.0 4.0 0.00 0.31 0.01 87 1013.0
20260505061710 54 229 0.0 3.0 0.00 0.31 0.01 87 1013.0
20260505061216 53 0 0.0 4.0 0.00 0.31 0.01 87 1013.0
20260505060706 53 220 1.0 4.0 0.00 0.31 0.01 88 1013.0
20260505060208 53 177 1.0 4.0 0.00 0.31 0.01 88 1013.0
20260505055208 53 226 3.0 6.0 0.00 0.31 0.01 88 1013.0
20260505054709 53 215 2.0 6.0 0.00 0.31 0.01 88 1012.9